Location: Mainz-Finthen
(49.9906°N, 8.1713°E)
Time: 07:48:16
(UTC+00:00)

Envisat - Pass Details

Date: 04 October 2021
Orbit: 764 x 766 km, 98.2° (Epoch: 22 October)

Event Time Altitude Azimuth Distance (km) Brightness Sun altitude
Rises 03:21:25 0° 27° (NNE) 3,243 7.0 -21.5°
Reaches altitude 10° 03:24:33 10° 47° (NE) 2,310 6.4 -21.0°
Maximum altitude 03:27:52 17° 88° (E) 1,847 5.9 -20.5°
Drops below altitude 10° 03:31:11 10° 129° (SE) 2,298 5.9 -20.0°
Sets 03:34:15 0° 149° (SSE) 3,218 6.4 -19.5°
